GW0392 Weather Reports


Display with metric or nautical units.
time (UTC)temp
F
wind
direction
speed
MPH
gust
MPH
rain 1hr
in
rain 24hr
in
rain mn
in
humidity
%
barometer
mb
20260904031606 77 222 0.0 0.0 0.00 0.00 0.00 94 1016.7
20260904031103 77 222 0.0 0.0 0.00 0.00 0.00 94 1016.9
20260904030558 77 222 0.0 0.0 0.00 0.00 0.00 94 1016.8
20260904030053 77 225 0.0 0.0 0.00 0.00 0.00 94 1016.7
20260904025549 77 222 0.0 0.0 0.00 0.00 0.00 94 1017.0
20260904025044 77 220 0.0 0.0 0.00 0.00 0.00 94 1016.9
20260904024539 77 220 0.0 0.0 0.00 0.00 0.00 94 1017.0
20260904024035 77 220 0.0 0.0 0.00 0.00 0.00 93 1016.8
20260904023531 77 220 0.0 0.0 0.00 0.00 0.00 93 1016.8
20260904023026 77 220 0.0 0.0 0.00 0.00 0.00 93 1016.8
20260904022521 77 220 0.0 0.0 0.00 0.00 0.00 93 1016.8
20260904022018 78 220 0.0 0.0 0.00 0.00 0.00 93 1016.7
20260904021513 78 219 0.0 0.0 0.00 0.00 0.00 93 1016.8
20260904021009 78 222 0.0 0.0 0.00 0.00 0.00 93 1016.5
20260904020503 78 222 0.0 0.0 0.00 0.00 0.00 93 1016.7
20260904020003 78 222 0.0 0.0 0.00 0.00 0.00 93 1016.4
20260904015458 78 222 0.0 0.0 0.00 0.00 0.00 93 1016.3
20260904014956 78 222 0.0 0.0 0.00 0.00 0.00 92 1016.5
20260904014451 78 222 0.0 0.0 0.00 0.00 0.00 92 1016.3
20260904013947 78 222 0.0 0.0 0.00 0.00 0.00 92 1016.3
20260904013443 78 222 0.0 0.0 0.00 0.00 0.00 92 1016.3
20260904012939 78 222 0.0 0.0 0.00 0.00 0.00 92 1016.2
20260904012438 79 222 0.0 0.0 0.00 0.00 0.00 92 1016.0
20260904011933 79 222 0.0 0.0 0.00 0.00 0.00 92 1015.9
20260904011427 79 222 0.0 0.0 0.00 0.00 0.00 92 1016.0
20260904010923 80 222 0.0 0.0 0.00 0.00 0.00 92 1015.9
20260904010420 80 222 0.0 0.0 0.00 0.00 0.00 91 1016.1
20260904005914 80 222 0.0 0.0 0.00 0.00 0.00 91 1016.0
20260904005410 80 222 0.0 0.0 0.00 0.00 0.00 91 1015.8
20260904004910 80 222 0.0 0.0 0.00 0.00 0.00 91 1015.5
20260904004406 80 222 0.0 0.0 0.00 0.00 0.00 90 1015.7
20260904003901 81 223 0.0 0.0 0.00 0.00 0.00 90 1015.7
20260904003356 81 223 0.0 0.0 0.00 0.00 0.00 90 1015.5
20260904002851 82 223 0.0 0.0 0.00 0.00 0.00 90 1015.7
20260904002348 82 223 0.0 0.0 0.00 0.00 0.00 90 1015.4
20260904001847 82 223 0.0 0.0 0.00 0.00 0.00 89 1015.4
20260904001343 82 223 0.0 0.0 0.00 0.00 0.00 89 1014.9
20260904000837 83 223 0.0 0.0 0.00 0.00 0.00 88 1015.4
20260904000336 83 223 0.0 0.0 0.00 0.00 0.00 88 1015.2
20260903235831 83 223 0.0 0.0 0.00 0.00 0.00 87 1015.1
20260903235327 83 224 0.0 0.0 0.00 0.00 0.00 86 1015.0
20260903234826 84 224 0.0 0.0 0.00 0.00 0.00 85 1014.9
20260903234323 84 224 0.0 0.0 0.00 0.00 0.00 85 1014.7
20260903233819 84 226 0.0 0.0 0.00 0.00 0.00 86 1015.0
20260903233315 84 221 0.0 0.0 0.00 0.00 0.00 86 1014.9
20260903232814 84 220 0.0 0.0 0.00 0.00 0.00 85 1014.9
20260903232310 84 220 0.0 0.0 0.00 0.00 0.00 85 1014.9
20260903231809 84 220 0.0 0.0 0.00 0.00 0.00 85 1014.8
20260903231304 84 223 0.0 0.0 0.00 0.00 0.00 85 1015.0
20260903230759 85 220 0.0 0.0 0.00 0.00 0.00 85 1015.0
20260903230254 85 221 0.0 0.0 0.00 0.00 0.00 84 1015.1
20260903225750 85 220 0.0 0.0 0.00 0.00 0.00 83 1014.9
20260903225246 85 220 0.0 0.0 0.00 0.00 0.00 82 1014.8
20260903224743 84 220 0.0 0.0 0.00 0.00 0.00 83 1014.9
20260903224238 84 221 0.0 0.0 0.00 0.00 0.00 82 1014.8
20260903223733 84 225 0.0 0.0 0.00 0.00 0.00 82 1015.0
20260903223232 85 225 0.0 1.0 0.00 0.00 0.00 82 1015.1
20260903222727 85 212 1.0 1.0 0.00 0.00 0.00 80 1015.0
20260903222226 85 210 1.0 2.0 0.00 0.00 0.00 79 1014.9
20260903221721 85 220 0.0 0.0 0.00 0.00 0.00 81 1014.8
20260903221220 85 220 0.0 0.0 0.00 0.00 0.00 82 1015.0
20260903220718 85 220 0.0 1.0 0.00 0.00 0.00 81 1014.8
20260903220213 85 194 1.0 2.0 0.00 0.00 0.00 81 1015.0
20260903215712 86 219 0.0 0.0 0.00 0.00 0.00 79 1014.9
20260903215208 86 220 0.0 0.0 0.00 0.00 0.00 77 1014.5
20260903214706 87 220 0.0 1.0 0.00 0.00 0.00 74 1014.9
20260903214202 87 219 0.0 0.0 0.00 0.00 0.00 73 1015.2
20260903213656 86 217 0.0 0.0 0.00 0.00 0.00 74 1015.1
20260903213152 86 214 0.0 1.0 0.00 0.00 0.00 72 1014.8
20260903212648 87 225 0.0 1.0 0.00 0.00 0.00 70 1015.0
20260903212144 90 227 0.0 1.0 0.00 0.00 0.00 67 1015.1
20260903211638 92 222 1.0 1.0 0.00 0.00 0.00 57 1015.1
20260903211135 93 229 1.0 1.0 0.00 0.00 0.00 56 1015.0
20260903210630 93 223 0.0 0.0 0.00 0.00 0.00 55 1015.0
20260903210126 93 221 0.0 0.0 0.00 0.00 0.00 54 1015.0
20260903205625 94 223 0.0 0.0 0.00 0.00 0.00 55 1014.8
20260903205125 95 220 1.0 1.0 0.00 0.00 0.00 51 1015.0
20260903204620 96 220 0.0 2.0 0.00 0.00 0.00 48 1015.0
20260903204116 97 212 0.0 1.0 0.00 0.00 0.00 48 1015.1
20260903203611 97 222 0.0 1.0 0.00 0.00 0.00 46 1015.1
20260903203106 98 192 2.0 3.0 0.00 0.00 0.00 45 1015.0
20260903202601 98 212 1.0 1.0 0.00 0.00 0.00 47 1015.1
20260903202057 98 188 1.0 5.0 0.00 0.00 0.00 46 1015.1
20260903201551 98 218 1.0 2.0 0.00 0.00 0.00 45 1015.1
20260903201050 98 216 1.0 1.0 0.00 0.00 0.00 45 1015.1
20260903200546 98 225 0.0 2.0 0.00 0.00 0.00 44 1015.2
20260903200040 98 218 0.0 2.0 0.00 0.00 0.00 45 1015.6
20260903195537 98 226 2.0 3.0 0.00 0.00 0.00 45 1015.4
20260903195032 98 224 1.0 2.0 0.00 0.00 0.00 45 1015.7
20260903194527 99 212 1.0 2.0 0.00 0.00 0.00 45 1015.6
20260903194022 99 213 1.0 3.0 0.00 0.00 0.00 44 1015.5
20260903193519 98 196 1.0 3.0 0.00 0.00 0.00 44 1015.7
20260903193014 98 214 2.0 2.0 0.00 0.00 0.00 43 1015.8
20260903192511 99 228 1.0 2.0 0.00 0.00 0.00 44 1015.7
20260903192010 99 221 1.0 3.0 0.00 0.00 0.00 43 1016.0
20260903191507 99 216 0.0 3.0 0.00 0.00 0.00 44 1015.9
20260903191001 99 231 1.0 3.0 0.00 0.00 0.00 44 1015.9
20260903190501 99 195 2.0 3.0 0.00 0.00 0.00 43 1016.0
20260903185954 98 168 0.0 1.0 0.00 0.00 0.00 45 1016.1
20260903185450 98 270 3.0 3.0 0.00 0.00 0.00 44 1016.2
20260903184944 98 195 2.0 3.0 0.00 0.00 0.00 44 1016.3
20260903184442 98 230 0.0 1.0 0.00 0.00 0.00 47 1016.4
20260903183936 98 233 1.0 2.0 0.00 0.00 0.00 47 1016.2
20260903183430 98 229 1.0 2.0 0.00 0.00 0.00 47 1016.3
20260903182930 97 219 0.0 1.0 0.00 0.00 0.00 46 1016.6
20260903182429 97 229 2.0 2.0 0.00 0.00 0.00 47 1016.7
20260903181925 97 186 5.0 7.0 0.00 0.00 0.00 47 1016.8
20260903181419 98 153 2.0 3.0 0.00 0.00 0.00 46 1016.6
20260903180918 98 215 0.0 2.0 0.00 0.00 0.00 46 1016.6
20260903180413 98 199 2.0 3.0 0.00 0.00 0.00 44 1016.8
20260903175912 98 193 2.0 3.0 0.00 0.00 0.00 46 1016.8
20260903175407 98 219 0.0 2.0 0.00 0.00 0.00 48 1016.9
20260903174901 97 182 2.0 5.0 0.00 0.00 0.00 49 1017.0
20260903174356 97 201 2.0 2.0 0.00 0.00 0.00 49 1017.1
20260903173850 98 205 0.0 1.0 0.00 0.00 0.00 51 1017.1
20260903173346 97 224 0.0 2.0 0.00 0.00 0.00 51 1017.1
20260903172842 97 228 0.0 1.0 0.00 0.00 0.00 53 1017.3
20260903172336 97 226 0.0 2.0 0.00 0.00 0.00 53 1017.1
20260903171832 97 208 1.0 2.0 0.00 0.00 0.00 55 1017.3
20260903171327 96 222 0.0 1.0 0.00 0.00 0.00 54 1017.7
20260903170826 95 216 1.0 3.0 0.00 0.00 0.00 56 1017.7
20260903170322 96 217 0.0 2.0 0.00 0.00 0.00 55 1017.7
20260903165820 95 224 0.0 0.0 0.00 0.00 0.00 57 1017.8
20260903165314 95 225 0.0 1.0 0.00 0.00 0.00 56 1017.9
20260903164814 95 218 1.0 2.0 0.00 0.00 0.00 56 1017.9
20260903164310 94 201 1.0 2.0 0.00 0.00 0.00 58 1018.1
20260903163809 94 218 1.0 2.0 0.00 0.00 0.00 59 1018.2
20260903163306 94 209 1.0 1.0 0.00 0.00 0.00 60 1018.1
20260903162801 94 213 1.0 1.0 0.00 0.00 0.00 59 1018.3
20260903162257 93 223 0.0 2.0 0.00 0.00 0.00 61 1018.2
20260903161753 93 229 0.0 1.0 0.00 0.00 0.00 62 1018.3
20260903161248 92 210 0.0 2.0 0.00 0.00 0.00 64 1018.3
20260903160744 92 223 0.0 0.0 0.00 0.00 0.00 63 1018.1
20260903160243 91 223 0.0 0.0 0.00 0.00 0.00 64 1018.3
20260903155741 91 218 0.0 0.0 0.00 0.00 0.00 64 1018.4
20260903155237 91 231 1.0 1.0 0.00 0.00 0.00 65 1018.2
20260903154732 90 228 0.0 1.0 0.00 0.00 0.00 66 1018.4
20260903154228 90 223 2.0 2.0 0.00 0.00 0.00 67 1018.5
20260903153723 89 260 0.0 1.0 0.00 0.00 0.00 67 1018.5
20260903153219 89 222 0.0 1.0 0.00 0.00 0.00 68 1018.6
20260903152715 89 229 0.0 1.0 0.00 0.00 0.00 68 1018.5
20260903152212 89 227 0.0 1.0 0.00 0.00 0.00 68 1018.6
20260903151711 89 228 0.0 1.0 0.00 0.00 0.00 70 1018.5
20260903151206 88 235 1.0 1.0 0.00 0.00 0.00 71 1018.5
20260903150701 87 230 1.0 1.0 0.00 0.00 0.00 71 1018.7
20260903150156 87 229 1.0 1.0 0.00 0.00 0.00 71 1018.6
20260903145655 87 224 0.0 1.0 0.00 0.00 0.00 72 1018.4
20260903145151 87 223 0.0 1.0 0.00 0.00 0.00 73 1018.7
20260903144649 86 229 0.0 0.0 0.00 0.00 0.00 73 1018.6
20260903144146 86 229 0.0 0.0 0.00 0.00 0.00 74 1018.9
20260903143642 85 228 0.0 0.0 0.00 0.00 0.00 75 1018.6
20260903143137 85 226 1.0 1.0 0.00 0.00 0.00 75 1018.5
20260903142633 84 225 0.0 0.0 0.00 0.00 0.00 76 1018.6
20260903142129 84 223 0.0 0.0 0.00 0.00 0.00 78 1018.4
20260903141624 83 224 0.0 0.0 0.00 0.00 0.00 79 1018.4
20260903141119 83 223 0.0 0.0 0.00 0.00 0.00 80 1018.8
20260903140616 83 223 0.0 0.0 0.00 0.00 0.00 79 1018.8
20260903140111 83 223 0.0 0.0 0.00 0.00 0.00 80 1018.6
20260903135607 82 223 0.0 1.0 0.00 0.00 0.00 81 1018.6
20260903135107 81 228 0.0 0.0 0.00 0.00 0.00 84 1018.5
20260903134605 80 229 0.0 0.0 0.00 0.00 0.00 85 1018.4
20260903134101 80 227 0.0 0.0 0.00 0.00 0.00 88 1018.8
20260903133559 78 226 0.0 0.0 0.00 0.00 0.00 91 1018.8
20260903133055 78 227 0.0 0.0 0.00 0.00 0.00 93 1018.8
20260903132549 77 225 0.0 0.0 0.00 0.00 0.00 94 1018.6
20260903132045 77 225 0.0 0.0 0.00 0.00 0.00 94 1018.6
20260903131544 76 222 0.0 0.0 0.00 0.00 0.00 95 1018.7
20260903131043 76 225 0.0 0.0 0.00 0.00 0.00 96 1018.8
20260903130538 75 225 0.0 0.0 0.00 0.00 0.00 97 1018.6
20260903130033 75 223 0.0 0.0 0.00 0.00 0.00 98 1018.7
20260903125531 74 223 0.0 0.0 0.00 0.00 0.00 98 1018.8
20260903125027 74 223 0.0 0.0 0.00 0.00 0.00 99 1018.9
20260903124526 74 223 0.0 0.0 0.00 0.00 0.00 99 1018.7
20260903124021 73 223 0.0 0.0 0.00 0.00 0.00 99 1018.8
20260903123521 73 224 0.0 0.0 0.00 0.00 0.00 99 1018.8
20260903123019 73 220 0.0 0.0 0.00 0.00 0.00 99 1018.9
20260903122513 73 220 0.0 0.0 0.00 0.00 0.00 99 1018.7
20260903122008 73 220 0.0 0.0 0.00 0.00 0.00 99 1019.1
20260903121503 73 220 0.0 0.0 0.00 0.00 0.00 99 1018.7
20260903120959 72 220 0.0 0.0 0.00 0.00 0.00 99 1018.7
20260903120457 72 220 0.0 0.0 0.00 0.00 0.00 99 1018.8
20260903115956 72 220 0.0 0.0 0.00 0.00 0.00 99 1018.5
20260903115455 72 220 0.0 0.0 0.00 0.00 0.00 99 1018.4
20260903114950 72 220 0.0 0.0 0.00 0.00 0.00 99 1018.5
20260903114445 72 220 0.0 0.0 0.00 0.00 0.00 99 1018.4
20260903113941 72 221 0.0 0.0 0.00 0.00 0.00 99 1018.4
20260903113437 72 221 0.0 0.0 0.00 0.00 0.00 99 1018.4
20260903112932 72 221 0.0 0.0 0.00 0.00 0.00 99 1018.0
20260903112428 72 221 0.0 0.0 0.00 0.00 0.00 99 1018.2
20260903111926 72 221 0.0 0.0 0.00 0.00 0.00 99 1018.0
20260903111421 72 219 0.0 0.0 0.00 0.00 0.00 99 1018.1
20260903110918 72 222 0.0 0.0 0.00 0.00 0.00 99 1018.1
20260903110413 72 222 0.0 0.0 0.00 0.00 0.00 99 1018.1
20260903105908 72 222 0.0 0.0 0.00 0.00 0.00 99 1018.0
20260903105403 72 222 0.0 0.0 0.00 0.00 0.00 99 1017.8
20260903104902 72 223 0.0 0.0 0.00 0.00 0.00 99 1017.7
20260903104357 72 223 0.0 0.0 0.00 0.00 0.00 99 1018.0
20260903103854 72 223 0.0 0.0 0.00 0.00 0.00 99 1017.7
20260903103350 72 223 0.0 0.0 0.00 0.00 0.00 99 1018.0
20260903102845 72 223 0.0 0.0 0.00 0.00 0.00 99 1017.9
20260903102344 72 222 0.0 0.0 0.00 0.00 0.00 99 1018.0
20260903101839 72 222 0.0 0.0 0.00 0.00 0.00 99 1017.7
20260903101334 72 222 0.0 0.0 0.00 0.00 0.00 99 1017.8
20260903100829 72 222 0.0 0.0 0.00 0.00 0.00 99 1018.0
20260903100324 72 222 0.0 0.0 0.00 0.00 0.00 99 1017.9
20260903095821 72 222 0.0 0.0 0.00 0.00 0.00 99 1018.0
20260903095315 72 222 0.0 0.0 0.00 0.00 0.00 99 1017.7
20260903094810 73 222 0.0 0.0 0.00 0.00 0.00 99 1017.9
20260903094305 73 222 0.0 0.0 0.00 0.00 0.00 99 1017.7
20260903093801 73 222 0.0 0.0 0.00 0.00 0.00 99 1017.8
20260903093256 73 221 0.0 0.0 0.00 0.00 0.00 99 1017.7
20260903092755 73 221 0.0 0.0 0.00 0.00 0.00 98 1017.7
20260903092245 73 221 0.0 0.0 0.00 0.00 0.00 98 1017.8
20260903091744 73 221 0.0 0.0 0.00 0.00 0.00 98 1017.8
20260903091238 73 221 0.0 0.0 0.00 0.00 0.00 98 1017.8
20260903090734 73 221 0.0 0.0 0.00 0.00 0.00 98 1017.8
20260903090232 73 222 0.0 0.0 0.00 0.00 0.00 98 1017.7
20260903085726 73 222 0.0 0.0 0.00 0.00 0.00 98 1017.5
20260903085221 73 222 0.0 0.0 0.00 0.00 0.00 98 1017.7
20260903084719 73 222 0.0 0.0 0.00 0.00 0.00 98 1017.8
20260903084214 73 224 0.0 0.0 0.00 0.00 0.00 98 1017.7
20260903083710 73 223 0.0 0.0 0.00 0.00 0.00 98 1017.7
20260903083209 73 223 0.0 0.0 0.00 0.00 0.00 98 1017.7
20260903082703 73 225 0.0 0.0 0.00 0.00 0.00 98 1017.4
20260903082159 73 223 0.0 0.0 0.00 0.00 0.00 98 1017.4
20260903081654 73 223 0.0 0.0 0.00 0.00 0.00 98 1017.5
20260903081150 73 223 0.0 0.0 0.00 0.00 0.00 98 1017.5
20260903080645 73 221 0.0 0.0 0.00 0.00 0.00 98 1017.5
20260903080143 73 221 0.0 0.0 0.00 0.00 0.00 98 1017.5
20260903075642 73 220 0.0 0.0 0.00 0.00 0.00 97 1017.5
20260903075137 73 222 0.0 0.0 0.00 0.00 0.00 97 1017.4
20260903074636 73 222 0.0 0.0 0.00 0.00 0.00 97 1017.4
20260903074132 74 222 0.0 0.0 0.00 0.00 0.00 97 1017.3
20260903073627 74 222 0.0 0.0 0.00 0.00 0.00 97 1017.2
20260903073122 74 222 0.0 0.0 0.00 0.00 0.00 97 1017.4
20260903072618 74 220 0.0 0.0 0.00 0.00 0.00 97 1017.2
20260903072114 74 219 0.0 0.0 0.00 0.00 0.00 96 1017.3
20260903071611 74 223 0.0 0.0 0.00 0.00 0.00 96 1017.4
20260903071110 74 223 0.0 0.0 0.00 0.00 0.00 96 1017.7
20260903070605 74 222 0.0 0.0 0.00 0.00 0.00 96 1017.3
20260903065600 74 222 0.0 0.0 0.00 0.00 0.00 96 1017.4
20260903065055 74 223 0.0 0.0 0.00 0.00 0.00 96 1017.2
20260903064555 74 223 0.0 0.0 0.00 0.00 0.00 96 1017.4
20260903064050 74 221 0.0 0.0 0.00 0.00 0.00 95 1017.4
20260903063545 74 221 0.0 0.0 0.00 0.00 0.00 95 1017.4
20260903063041 74 221 0.0 0.0 0.00 0.00 0.00 95 1017.4
20260903062536 74 221 0.0 0.0 0.00 0.00 0.00 95 1017.4
20260903062031 74 221 0.0 0.0 0.00 0.00 0.00 95 1017.3
20260903061527 74 220 0.0 0.0 0.00 0.00 0.00 95 1017.4
20260903061026 74 220 0.0 0.0 0.00 0.00 0.00 95 1017.4
20260903060526 74 220 0.0 0.0 0.00 0.00 0.00 95 1017.7
20260903060021 74 220 0.0 0.0 0.00 0.00 0.00 95 1017.5
20260903055518 75 220 0.0 0.0 0.00 0.00 0.00 95 1017.5
20260903055018 75 218 0.0 0.0 0.00 0.00 0.00 95 1017.5
20260903054513 75 221 0.0 0.0 0.00 0.00 0.00 94 1017.7
20260903054008 75 221 0.0 0.0 0.00 0.00 0.00 94 1017.4
20260903053503 75 221 0.0 0.0 0.00 0.00 0.00 94 1017.5
20260903052959 75 221 0.0 0.0 0.00 0.00 0.00 94 1017.7
20260903052455 75 221 0.0 0.0 0.00 0.00 0.00 94 1017.5
20260903051950 75 221 0.0 0.0 0.00 0.00 0.00 94 1017.7
20260903051445 75 221 0.0 0.0 0.00 0.00 0.00 93 1017.5
20260903050941 75 223 0.0 0.0 0.00 0.00 0.00 93 1017.4
20260903050440 75 222 0.0 0.0 0.00 0.00 0.00 93 1017.5
20260903045934 75 222 0.0 0.0 0.00 0.00 0.00 93 1017.8
20260903045430 75 221 0.0 0.0 0.00 0.00 0.00 93 1017.7
20260903044927 75 221 0.0 0.0 0.00 0.00 0.00 93 1017.4
20260903044427 76 221 0.0 0.0 0.00 0.00 0.00 93 1017.5
20260903043923 76 222 0.0 0.0 0.00 0.00 0.00 92 1017.5
20260903043419 76 223 0.0 0.0 0.00 0.00 0.00 92 1017.4
20260903042917 76 223 0.0 0.0 0.00 0.00 0.00 92 1017.5
20260903042413 76 223 0.0 0.0 0.00 0.00 0.00 92 1017.4
20260903041908 76 223 0.0 0.0 0.00 0.00 0.00 92 1017.5
20260903041404 76 223 0.0 0.0 0.00 0.00 0.00 91 1017.3
20260903040900 76 223 0.0 0.0 0.00 0.00 0.00 91 1017.4
20260903040359 76 223 0.0 0.0 0.00 0.00 0.00 91 1017.2
20260903035854 76 220 0.0 0.0 0.00 0.00 0.00 92 1017.3
20260903035350 77 220 0.0 0.0 0.00 0.00 0.00 92 1017.4
20260903034840 77 220 0.0 0.0 0.00 0.00 0.00 91 1017.4
20260903034335 77 220 0.0 0.0 0.00 0.00 0.00 91 1017.8
20260903033830 77 218 0.0 0.0 0.00 0.00 0.00 91 1017.5
20260903033325 77 221 0.0 0.0 0.00 0.00 0.00 91 1017.7
20260903032825 77 221 0.0 0.0 0.00 0.00 0.00 91 1017.5
20260903032321 77 220 0.0 0.0 0.00 0.00 0.00 90 1017.5
20260903031816 78 221 0.0 0.0 0.00 0.00 0.00 90 1017.8